Regional Weather Roundup
Issued by NWS

Home | Current Version | Previous Version | Text Only | Print | Product List | Glossary On
Versions: 1 2 3 4 5 6 7 8 9 10 11 12 13 14 15 16 17 18 19 20 21 22 23 24 25 26 27 28 29 30 31 32 33 34 35 36 37 38 39 40 41 42 43 44 45 46 47 48 49 50
000
ASUS44 KLIX 041708
RWRLA
LOUISIANA WEATHER ROUNDUP
NATIONAL WEATHER SERVICE NEW ORLEANS LA
1200 PM CDT FRI SEP 04 2015

NOTE: "FAIR" INDICATES FEW OR NO CLOUDS BELOW 12,000 FEET WITH NO
      SIGNIFICANT WEATHER AND/OR OBSTRUCTIONS TO VISIBILITY.
      SKY/WX - SKY CONDITION AND SIGNIFICANT WEATHER.
      TMP - AIR TEMPERATURE.    DP   - DEWPOINT TEMPERATURE.
      RH  - RELATIVE HUMIDITY.  PRES - PRESSURE.
      HX  - HEAT INDEX.         WCI  - WIND CHILL INDEX.

*  THESE STATIONS ARE NOT NWS OR FAA STATIONS AND ARE NOT UNDER
   NWS QUALITY CONTROL.

LAZ040-048-061>063-065-066-069-041800-
SOUTHEAST LOUISIANA

CITY           SKY/WX    TMP DP  RH WIND       PRES   REMARKS
N.O. AUDUBON     N/A     94  76  56 MISG        N/A  HX 106
N.O. INTL ARPT PTSUNNY   86  75  69 NE7       30.00F HX  95
N.O. LAKEFRONT LGT RAIN  87  74  64 N8        30.01F HX  95
N.O. DOWNTOWN* CLOUDY    82  77  83 N5        30.01S
RESERVE*       FAIR      88  73  61 S3        29.99F HX  95
SLIDELL        CLOUDY    80  77  90 E5        30.01S
BATON ROUGE    PTSUNNY   89  73  59 VRB5      29.99F HX  97
BOOTHVILLE     SUNNY     86  75  69 VRB7      30.02S HX  95
BELLE CHASSE   PTSUNNY   84  75  74 S3        30.00S
BOGALUSA*      NOT AVBL
GALLIANO*      PTSUNNY   90  75  61 S8        30.00F HX 100
NEW ROADS*     FAIR      87  74  63 CALM      29.99F HX  95
GONZALES*      FAIR      88  74  63 S3        29.98F HX  96
HAMMOND*       CLOUDY    88  70  55 CALM      30.02S
HOUMA*         SHOWER    75  73  94 S20       30.01S
PORT FOURCHON* SUNNY     86  75  70 SW8       30.02S HX  95

$$

LAZ041-044-053-054-041800-
SOUTHWEST LOUISIANA

CITY           SKY/WX    TMP DP  RH WIND       PRES   REMARKS
LAKE CHARLES   MOSUNNY   86  75  69 VRB5      29.98F HX  95
LAFAYETTE      PTSUNNY   82  74  76 CALM      29.99F
PATTERSON      MOSUNNY   82  75  78 NW3       30.01S
SALT POINT       N/A     85  77  77 VRB6      29.98F HX  95
NEW IBERIA     MOSUNNY   80  77  90 SE10      30.01R THUNDER
CHENAULT AIRPK PTSUNNY   81  75  83 SW6       30.00R

$$

LAZ027-028-041800-
CENTRAL LOUISIANA

CITY           SKY/WX    TMP DP  RH WIND       PRES   REMARKS
FORT POLK      MOSUNNY   88  74  63 VRB5      29.98F HX  95
ALEXANDRIA INT MOSUNNY   90  70  51 VRB5      29.98F HX  95
ALEXANDRIA     MOSUNNY   92  71  50 CALM      30.00F HX  98

$$

LAZ001-002-041800-
NORTHWEST LOUISIANA

CITY           SKY/WX    TMP DP  RH WIND       PRES   REMARKS
SHREVEPORT     MOSUNNY   89  70  53 SE6       29.98F
BARKSDALE AFB  MOSUNNY   89  71  55 S8        29.98F HX  95
DTN SHREVEPORT SUNNY     89  71  55 E5        29.99F HX  95

$$

LAZ014-016-041800-
NORTHEAST LOUISIANA

CITY           SKY/WX    TMP DP  RH WIND       PRES   REMARKS
MONROE         PTSUNNY   91  73  55 CALM      30.00F HX  99
TALLULAH       SUNNY     90  71  53 N5        30.00F HX  96

$$



USA.gov is the U.S. government's official web portal to all federal, state and local government web resources and services.